Location: Newark
(11.6000°N, 43.1667°E)
Time: 10:28:29
(UTC+00:00)

LightSail 2 - Visible Passes

Search period start: 16 September 2019 00:00
Search period end: 26 September 2019 00:00
Orbit: 699 x 732 km, 24.0° (Epoch: 15 September)

Date Brightness Start Highest point End Pass type
(mag) Time Alt. Az. Time Alt. Az. Time Alt. Az.
16 Sep 6.5 00:54:10 31° SE 00:54:10 31° SE 00:57:55 10° E visible
16 Sep 5.2 02:33:49 10° WSW 02:38:52 69° NNW 02:43:57 10° ENE visible
17 Sep 5.0 01:39:47 39° WSW 01:41:39 87° SSE 01:46:45 10° ENE visible
18 Sep 6.4 00:46:19 36° E 00:46:19 36° E 00:49:28 10° ENE visible
18 Sep 5.8 02:25:21 10° W 02:30:05 42° NNW 02:34:55 10° NE visible
19 Sep 5.3 01:31:50 47° WNW 01:32:49 55° NNW 01:37:47 10° ENE visible
20 Sep 6.9 00:38:17 27° ENE 00:38:17 27° ENE 00:40:37 10° ENE visible
20 Sep 6.4 02:17:19 11° WNW 02:21:23 29° NNW 02:25:46 10° NE visible
21 Sep 5.9 01:23:43 35° NNW 01:24:01 35° NNW 01:28:39 10° NE visible
22 Sep 7.5 00:30:05 18° NE 00:30:05 18° NE 00:31:32 10° NE visible
22 Sep 6.7 02:09:06 11° WNW 02:12:43 22° N 02:16:40 10° NE visible
23 Sep 6.5 01:15:26 26° N 01:15:26 26° N 01:19:28 10° NE visible
24 Sep 7.9 00:21:44 13° NE 00:21:44 13° NE 00:22:19 10° NE visible
24 Sep 7.0 02:00:46 11° NW 02:04:06 19° N 02:07:44 10° NE visible
25 Sep 6.9 01:07:03 21° N 01:07:03 21° N 01:10:23 10° NE visible
